カタログに戻る

COSMOS 1860 COOLANT

LostLEO
NORAD 50795·DEBRIS·🇷🇺 Russia

打ち上げ Jun 18, 1987 から Baikonur Cosmodrome

Loading…

次のパス (今後24時間)

TLE

古いSource: Space-Track

元期: Sep 15, 2022, 09:16 UTC

1 50795U 87052E   22258.38627738  .00000494  00000-0  19937-3 0  9990
2 50795  65.0089 125.8285 0012947 258.4849 277.5499 14.37206657975320

AllMySatでCOSMOS 1860 COOLANTをリアルタイム追跡

Download on the App Store